• Processing (Info)

  • MPEC 2008-T119: 2008 TS26

    The following Minor Planet Electronic Circular may be linked-to from your own Web pages, but must not otherwise be redistributed electronically.

    A form allowing access to any MPEC is at the bottom of this page.


    Read MPEC 2008-T118 Read MPEC 2008-T120


    M.P.E.C. 2008-T119                               Issued 2008 Oct. 10, 20:18 UT
    
         The Minor Planet Electronic Circulars contain information on unusual
             minor planets and routine data on comets.  They are published
       on behalf of Commission 20 of the International Astronomical Union by the
              Minor Planet Center, Smithsonian Astrophysical Observatory,
                              Cambridge, MA 02138, U.S.A.
    
                 Prepared using the Tamkin Foundation Computer Network
    
                                  MPC@CFA.HARVARD.EDU
              URL http://www.cfa.harvard.edu/iau/mpc.html  ISSN 1523-6714
    
                                       2008 TS26
    
    Observations:
         K08T26S  C2008 10 09.32884 01 14 39.50 +20 26 17.4          20.5 V ET119G96
         K08T26S  C2008 10 09.33328 01 14 10.14 +20 29 01.4          20.0 V ET119G96
         K08T26S  C2008 10 09.33780 01 13 41.50 +20 31 39.8          20.1 V ET119G96
         K08T26S  C2008 10 09.34232 01 13 14.17 +20 34 09.5          20.0 V ET119G96
         K08T26S* C2008 10 09.37347 01 10 38.06 +20 47 54.6          19.8 V ET119G96
         K08T26S  C2008 10 09.37375 01 10 36.87 +20 48 00.9          20.5 V ET119G96
         K08T26S  C2008 10 09.37402 01 10 35.72 +20 48 06.8          20.1 V ET119G96
         K08T26S  C2008 10 09.37431 01 10 34.53 +20 48 12.4          20.2 V ET119G96
         K08T26S  C2008 10 09.37499 01 10 31.54 +20 48 28.3          19.5 V ET119G96
         K08T26S  C2008 10 09.37524 01 10 30.54 +20 48 33.4          20.4 V ET119G96
         K08T26S  C2008 10 09.37552 01 10 29.38 +20 48 38.7          20.4 V ET119G96
         K08T26S  C2008 10 09.37580 01 10 28.23 +20 48 44.8          20.5 V ET119G96
         K08T26S  C2008 10 09.40759 01 08 34.44 +20 58 13.6          20.3 V ET119G96
         K08T26S  C2008 10 09.40787 01 08 33.61 +20 58 17.6          20.2 V ET119G96
         K08T26S  C2008 10 09.40814 01 08 32.78 +20 58 21.3          20.6 V ET119G96
         K08T26S  C2008 10 09.40840 01 08 31.95 +20 58 25.7          20.4 V ET119G96
         K08T26S  C2008 10 09.43498 01 07 21.00 +21 04 09.0          21.2 V ET119G96
         K08T26S  C2008 10 09.43613 01 07 18.37 +21 04 21.9          21.6 V ET119G96
         K08T26S  C2008 10 09.43726 01 07 15.78 +21 04 35.2          20.3 V ET119G96
         K08T26S  C2008 10 09.43838 01 07 13.26 +21 04 46.5          21.0 V ET119G96
    
    Observer details:
    G96 Mt. Lemmon Survey.  Observer A. Boattini.  Measurers E. C. Beshore,
        A. Boattini, G. J. Garradd, A. R. Gibbs, A. D. Grauer, R. E. Hill,
        R. A. Kowalski, S. M. Larson, R. H. McNaught.  1.5-m reflector + CCD.
    
    Orbital elements:
    2008 TS26                                                Earth MOID = 0.0001 AU
    Epoch 2008 Oct. 1.0 TT = JDT 2454740.5                  MPC
    M  25.77301              (2000.0)            P               Q
    n   0.59533162     Peri.  284.94258     +0.51466014     +0.85687878
    a   1.3994694      Node    16.13517     -0.73979711     +0.46132956
    e   0.4506969      Incl.    6.14059     -0.43338801     +0.23007346
    P   1.66           H   33.3           G   0.15
    From 20 observations 2008 Oct. 9-9.
    
    Ephemeris:
    2008 TS26                a,e,i = 1.40, 0.45, 6                   q = 0.7687
    Date    TT    R. A. (2000) Decl.     Delta      r     Elong.  Phase     V
    2008 10 09.00 12 41.32   -24 26.3    0.00109  0.998    18.6   161.3
    2008 10 09.05 12 30.47   -25 27.7    0.00071  0.998    20.3   159.6
    2008 10 09.10 11 53.67   -28 26.5    0.00034  0.999    27.0   153.0
    2008 10 09.15 04 18.74   -06 40.7    0.00011  0.999   128.6    51.4    15.5
    2008 10 09.20 01 46.02   +16 58.9    0.00046  0.999   164.4    15.6    17.4
    2008 10 09.25 01 25.80   +19 33.0    0.00084  1.000   165.4    14.6    18.7
    2008 10 09.30 01 18.08   +20 28.5    0.00122  1.000   165.2    14.7    19.6
    2008 10 09.35 01 14.01   +20 57.0    0.00160  1.000   165.1    14.9    20.2
    2008 10 09.40 01 11.51   +21 14.2    0.00199  1.001   164.9    15.0    20.6
    2008 10 09.45 01 09.81   +21 25.9    0.00237  1.001   164.8    15.1    21.0
    2008 10 09.50 01 08.58   +21 34.2    0.00275  1.001   164.8    15.2    21.3
    2008 10 09.55 01 07.65   +21 40.5    0.00314  1.002   164.7    15.2    21.6
    2008 10 09.60 01 06.92   +21 45.3    0.00352  1.002   164.7    15.3    21.9
    2008 10 09.65 01 06.34   +21 49.3    0.00391  1.002   164.7    15.3    22.1
    2008 10 09.70 01 05.86   +21 52.5    0.00429  1.003   164.6    15.3    22.3
    2008 10 09.75 01 05.45   +21 55.2    0.00467  1.003   164.6    15.3    22.5
    2008 10 09.80 01 05.11   +21 57.4    0.00506  1.003   164.6    15.3    22.7
    2008 10 09.85 01 04.82   +21 59.4    0.00544  1.004   164.6    15.3    22.8
    2008 10 09.90 01 04.57   +22 01.1    0.00583  1.004   164.6    15.3    23.0
    2008 10 09.95 01 04.34   +22 02.5    0.00621  1.005   164.6    15.3    23.1
    2008 10 10.00 01 04.15   +22 03.8    0.00660  1.005   164.6    15.3    23.3
    
    Sonia Keys                   (C) Copyright 2008 MPC           M.P.E.C. 2008-T119
    

    Read MPEC 2008-T118 Read MPEC 2008-T120


    MPEC number:

    Enter an MPEC number in one of the following forms:

    • 1997-B01 (the full form)
    • J97B01 (the packed version of the full form)
    • B01 (the abbreviated form)